Weather History for K79J - June, 2013

Change the Weather History Date:

Tuesday, June 25, 2013

  Actual Average (KCEW) Record (KCEW)
Temperature  
Mean Temperature 80 °F -  
Max Temperature 89 °F 91 °F 100 °F (1978)
Min Temperature 71 °F 69 °F 57 °F (2001)
Cooling Degree Days 15    
Growing Degree Days 30 (Base 50)    
Moisture  
Dew Point 71 °F    
Average Humidity 79    
Maximum Humidity 94    
Minimum Humidity 55    
Precipitation  
Precipitation 0.00 in - - ()
Sea Level Pressure  
Sea Level Pressure 30.11 in    
Wind  
Wind Speed 2 mph (South)    
Max Wind Speed 9 mph    
Max Gust Speed -    
Visibility 10 miles    
Events Rain    
Averages and records for this station are not official NWS values.
T = Trace of Precipitation, MM = Missing Value Source: NWS Daily Summary

Daily Weather History Graph

Daily Weather History Graph

Search for Another Location

Airport or City:

Trip Planner

Search our weather history database for the weather conditions in past years. The results will help you decide how hot, cold, wet, or windy it might be!

Date:

Astronomy

Jun. 25, 2013 Rise Set
Actual Time 5:42 AM CDT 7:53 PM CDT
Civil Twilight 5:14 AM CDT 8:21 PM CDT
Nautical Twilight 4:40 AM CDT 8:55 PM CDT
Astronomical Twilight 4:03 AM CDT 9:32 PM CDT
Moon 9:51 PM CDT (6/25) 8:12 AM CDT (6/25)
Length of Visible Light 15h 06m
Length of Day
14h 10m
Waning Gibbous, 92% of the Moon is Illuminated
Jun 25
Waning Gibbous
Jun 29
Last Quarter
Jul 8
New
Jul 15
First Quarter
Jul 22
Full

Hourly Weather History & Observations

Time (CDT) Temp. Heat Index Dew Point Humidity Pressure Visibility Wind Dir Wind Speed Gust Speed Precip Events Conditions
12:56 AM 72.0 °F - 69.1 °F 91% 30.13 in 10.0 mi Calm Calm - N/A   Clear
1:20 AM 71.6 °F - 69.8 °F 94% 30.14 in 10.0 mi SE 3.5 mph - N/A   Scattered Clouds
1:28 AM 71.6 °F - 69.8 °F 94% 30.14 in 10.0 mi Calm Calm - N/A   Mostly Cloudy
1:56 AM 72.0 °F - 69.1 °F 91% 30.12 in 10.0 mi Calm Calm - N/A   Overcast
2:31 AM 71.6 °F - 69.8 °F 94% 30.12 in 10.0 mi Calm Calm - N/A   Scattered Clouds
2:56 AM 71.1 °F - 69.1 °F 93% 30.10 in 10.0 mi Calm Calm - N/A   Clear
3:56 AM 72.0 °F - 69.1 °F 91% 30.10 in 10.0 mi SSE 3.5 mph - N/A   Clear
4:56 AM 72.0 °F - 69.1 °F 91% 30.11 in 10.0 mi Calm Calm - N/A   Clear
5:34 AM 71.6 °F - 68.0 °F 88% 30.13 in 10.0 mi Calm Calm - N/A   Partly Cloudy
5:56 AM 71.1 °F - 68.0 °F 90% 30.12 in 10.0 mi Calm Calm - N/A   Partly Cloudy
6:56 AM 73.0 °F - 70.0 °F 90% 30.14 in 10.0 mi Calm Calm - N/A   Clear
7:40 AM 75.2 °F - 71.6 °F 89% 30.17 in 10.0 mi SE 3.5 mph - N/A   Mostly Cloudy
7:56 AM 77.0 °F - 72.0 °F 84% 30.16 in 10.0 mi SE 3.5 mph - N/A   Scattered Clouds
8:26 AM 78.8 °F - 73.4 °F 83% 30.17 in 10.0 mi SSW 4.6 mph - N/A   Partly Cloudy
8:56 AM 81.0 °F 86.2 °F 73.9 °F 79% 30.15 in 10.0 mi Calm Calm - N/A   Scattered Clouds
9:16 AM 82.4 °F 88.2 °F 73.4 °F 74% 30.16 in 10.0 mi Calm Calm - N/A   Mostly Cloudy
9:49 AM 84.2 °F 90.9 °F 73.4 °F 70% 30.16 in 10.0 mi Calm Calm - N/A   Scattered Clouds
9:56 AM 82.9 °F 88.8 °F 73.0 °F 72% 30.14 in 10.0 mi Calm Calm - N/A   Partly Cloudy
10:56 AM 86.0 °F 93.0 °F 73.0 °F 65% 30.14 in 10.0 mi SE 5.8 mph - N/A   Overcast
11:56 AM 88.0 °F 93.8 °F 71.1 °F 57% 30.12 in 10.0 mi Calm Calm - N/A   Partly Cloudy
12:56 PM 89.1 °F 95.0 °F 71.1 °F 55% 30.11 in 10.0 mi Variable 4.6 mph - N/A   Scattered Clouds
1:56 PM 88.0 °F 97.5 °F 75.0 °F 65% 30.09 in 10.0 mi South 5.8 mph - 0.00 in Rain Light Rain
2:56 PM 87.1 °F 92.8 °F 71.1 °F 59% 30.08 in 10.0 mi WSW 9.2 mph - 0.00 in   Clear
3:56 PM 84.9 °F 90.7 °F 72.0 °F 65% 30.07 in 10.0 mi WSW 5.8 mph - N/A   Clear
4:56 PM 87.1 °F 94.5 °F 73.0 °F 63% 30.05 in 10.0 mi Variable 5.8 mph - N/A   Clear
5:56 PM 84.9 °F 90.1 °F 71.1 °F 63% 30.04 in 10.0 mi Calm Calm - N/A   Clear
6:56 PM 82.9 °F 88.0 °F 72.0 °F 69% 30.04 in 10.0 mi Calm Calm - N/A   Clear
7:56 PM 81.0 °F 85.8 °F 73.0 °F 77% 30.05 in 10.0 mi Calm Calm - N/A   Clear
8:56 PM 79.0 °F - 73.0 °F 82% 30.05 in 10.0 mi SW 4.6 mph - N/A   Clear
9:56 PM 78.1 °F - 73.0 °F 84% 30.06 in 10.0 mi SE 3.5 mph - N/A   Partly Cloudy
10:56 PM 77.0 °F - 73.0 °F 88% 30.05 in 10.0 mi SSW 3.5 mph - N/A   Clear
11:56 PM 77.0 °F - 73.0 °F 88% 30.05 in 10.0 mi Calm Calm - N/A   Clear